Location: Antioch Baptist Church
(32.6696°N, 85.7327°W)
Time: 09:44:09
(UTC+00:00)

Cosmos-2242 - Pass Details

Date: 06 November 2020
Orbit: 592 x 616 km, 82.5° (Epoch: 03 December)

Event Time Altitude Azimuth Distance (km) Brightness Sun altitude
Rises 11:11:15 0° 352° (N) 2,888 6.3 -11.8°
Reaches altitude 10° 11:13:29 10° 352° (N) 1,981 5.5 -11.3°
Maximum altitude 11:17:52 84° 266° (W) 624 3.0 -10.4°
Drops below altitude 10° 11:22:14 10° 177° (S) 1,968 5.9 -9.6°
Sets 11:24:27 0° 177° (S) 2,867 6.7 -9.1°
